Location: Boiro
(42.6475°N, 8.8834°W)
Time: 20:48:35
(UTC+01:00)

Vanguard 1 - Pass Details

Date: 02 December 2021
Orbit: 652 x 3830 km, 34.2° (Epoch: 19 January)

Event Time Altitude Azimuth Distance (km) Brightness Sun altitude
Rises 05:30:15 0° 270° (W) 7,973 - -35.5°
Reaches altitude 10° 05:35:56 10° 268° (W) 6,895 - -34.5°
Exits shadow 05:49:41 42° 251° (WSW) 4,256 12.7 -31.9°
Maximum altitude 05:57:31 61° 196° (SSW) 3,235 12.4 -30.5°
Drops below altitude 10° 06:10:43 10° 120° (ESE) 4,464 14.2 -28.1°
Sets 06:13:32 0° 116° (ESE) 5,127 14.8 -27.6°
